Temp
65 65 65 65 66 66 65 65 65 64 64 65 65 64 64 64 64 65 66 75 77 71 71 77 79 79 81 77 78 78 68 64 68 69 71 76 73 76 79 76 78 79 80 82 81
65 64 65 65 65 65 65 64 64 64 64 64 65 64 64 64 64 68 75 73 72 70 77 75 73 75 75 75 76 73 67 69 76 78 74 74 76 75 74 74 75 75 76 80 79
64 64 64 64 64 64 64 64 63 63 64 64 64 64 64 66 67 70 72 72 71 71 80 80 80 75 70 74 73 73 68 75 74 76 78 75 75 80 76 72 79 76 75 76 77
63 64 64 64 64 64 64 63 63 63 64 63 63 63 63 68 56 73 70 71 70 77 78 74 74 70 69 67 73 68 70 74 71 70 73 73 78 73 76 75 80 81 82 78 77
63 63 63 63 63 64 63 63 63 63 63 63 63 63 65 64 67 73 68 70 76 75 75 74 70 70 66 71 70 68 70 71 70 69 72 72 72 73 73 78 78 77 79 78 78
62 62 62 62 63 63 63 63 63 62 63 63 63 63 66 59 72 75 74 73 77 75 76 76 73 75 71 71 70 72 72 70 71 69 69 69 70 70 75 77 76 74 76 79 79
61 61 61 62 62 62 62 62 62 62 62 63 64 67 65 67 74 75 73 73 77 77 73 78 77 72 73 67 70 71 65 68 69 69 68 70 66 67 75 74 74 74 78 78 79
61 61 61 61 62 62 61 62 62 62 62 63 63 68 63 72 76 71 74 72 76 78 77 79 77 72 69 71 69 66 69 61 65 67 65 67 64 75 73 73 74 77 78 76 77
60 60 60 61 61 60 61 61 61 62 63 63 65 65 62 68 67 72 76 70 71 74 75 76 75 70 66 63 61 62 58 61 59 65 65 66 65 68 70 71 73 76 77 76 77
60 59 60 60 60 60 60 61 61 62 66 69 69 61 64 60 68 70 73 74 70 68 68 70 69 64 65 63 53 56 59 59 60 61 61 62 63 69 70 70 72 75 76 76 75
60 60 60 60 59 60 60 63 60 58 62 61 62 62 63 65 70 68 71 70 71 68 60 65 60 56 62 66 68 67 61 59 63 60 60 61 63 69 73 70 71 74 76 75 75
59 60 60 59 60 60 65 64 66 70 54 63 62 61 64 67 59 64 71 65 63 57 64 58 55 64 67 65 63 63 60 60 57 58 58 60 60 68 70 68 69 69 70 71 72
59 59 59 59 59 58 62 65 73 74 60 58 62 61 61 64 60 59 66 67 61 58 57 57 60 61 59 58 58 61 60 59 59 56 58 57 58 64 64 65 64 64 66 66 68
58 58 58 58 55 61 58 71 69 70 54 52 55 59 61 63 55 62 69 66 62 56 58 60 56 56 57 57 61 53 61 60 54 56 53 57 53 61 64 62 61 62 66 67 66
57 58 58 60 62 55 63 69 68 65 34 57 55 62 60 59 57 57 64 63 58 59 59 54 52 53 54 58 61 56 60 58 57 56 53 54 51 62 60 58 60 61 62 64 65
53 54 57 58 61 62 66 65 63 45 32 47 53 51 52 56 53 56 59 63 63 57 59 53 56 59 59 57 60 57 56 55 56 54 44 55 53 58 57 61 60 60 62 61 62
51 52 54 59 55 60 62 57 41 32 54 43 46 52 54 50 50 54 52 52 52 48 49 51 52 54 57 51 56 58 54 43 41 40 41 46 46 57 58 62 62 59 60 61 63
49 51 51 53 54 58 58 48 31 46 49 52 51 50 49 51 49 51 50 49 57 58 52 46 42 50 56 57 51 52 56 45 33 36 42 39 40 54 59 60 64 62 61 61 61
49 48 49 50 53 54 50 34 39 50 54 47 49 45 47 49 48 48 51 51 56 57 51 48 46 51 54 56 59 51 48 56 40 31 40 47 53 54 53 56 59 59 58 59 60
46 46 45 50 51 51 44 39 49 54 55 52 45 49 43 46 45 48 48 56 54 57 59 55 40 46 48 54 54 54 59 45 47 32 33 43 47 53 47 51 54 55 57 58 59
47 38 45 49 49 45 36 43 52 55 56 52 50 46 49 46 48 45 49 54 59 54 55 57 51 40 47 47 49 48 48 50 53 47 38 38 47 61 54 55 55 57 59 58 57
43 36 45 49 36 34 37 48 54 51 53 51 52 51 50 49 45 46 48 52 58 55 49 51 48 38 44 47 49 54 54 52 44 37 44 40 47 54 61 60 60 59 59 59 58
39 40 45 46 32 32 35 41 49 51 50 49 48 51 51 47 42 47 49 48 52 51 50 50 41 32 36 45 46 46 52 55 56 46 35 38 48 52 58 60 61 59 58 56 56
41 34 38 42 37 33 33 35 39 51 51 50 49 49 47 46 50 44 46 45 47 52 47 52 44 43 40 46 50 42 47 49 51 41 43 45 52 48 54 56 58 58 56 55 55
42 37 37 32 35 35 35 34 34 36 45 49 45 47 47 41 44 44 48 43 45 46 48 50 38 46 51 54 52 49 47 48 47 50 45 51 51 57 54 56 58 59 56 54 54
37 36 39 35 35 34 34 34 33 33 35 40 42 46 47 45 46 41 45 46 45 45 46 46 36 45 35 46 43 41 46 47 47 49 51 53 53 64 61 60 58 56 55 53 53
42 43 40 36 34 34 35 34 34 36 36 36 40 41 40 44 48 49 50 49 48 44 43 41 37 34 34 37 38 33 39 47 48 52 53 47 55 58 55 56 56 54 54 53 53
MSLP
1009.65 1009.85 1010.55 1010.77 1010.77 1011.16 1011.49 1011.92 1012.19 1012.69 1013.05 1013.51 1013.90 1014.11 1014.46 1014.62 1015.17 1015.27 1013.75 1012.70 1012.72 1013.13 1012.99 1013.30 1012.62 1012.27 1012.18 1011.86 1011.83 1011.71 1010.57 1009.63 1009.58 1009.82 1010.26 1011.50 1011.74 1012.54 1012.81 1012.74 1013.12 1013.60 1013.57 1013.97 1015.18
1009.41 1009.54 1010.08 1010.48 1010.67 1011.03 1011.38 1011.81 1012.20 1012.67 1012.98 1013.11 1013.55 1013.99 1014.43 1015.07 1015.29 1013.74 1011.89 1011.86 1012.24 1012.62 1012.79 1012.82 1012.21 1012.29 1011.79 1011.62 1011.79 1011.36 1010.38 1009.72 1009.95 1009.98 1010.55 1011.52 1011.73 1012.31 1012.64 1012.76 1013.12 1013.86 1014.75 1014.78 1015.44
1008.99 1009.42 1009.87 1010.14 1010.37 1010.74 1011.34 1011.86 1012.12 1012.41 1012.76 1013.19 1013.61 1014.01 1014.78 1014.84 1013.87 1011.46 1010.91 1011.38 1011.77 1012.69 1012.57 1012.53 1011.97 1012.16 1011.75 1011.82 1011.64 1011.11 1010.40 1010.28 1010.87 1010.99 1010.96 1011.57 1011.83 1012.12 1012.17 1012.39 1012.36 1013.00 1014.20 1014.98 1015.31
1008.83 1009.12 1009.67 1010.01 1010.27 1010.71 1011.28 1011.92 1012.10 1012.31 1012.80 1013.07 1013.18 1013.79 1014.23 1013.88 1012.32 1010.96 1011.01 1011.33 1012.05 1012.71 1012.67 1012.53 1012.18 1011.90 1011.46 1011.53 1011.40 1011.22 1011.16 1011.00 1011.64 1012.07 1011.99 1012.03 1012.09 1012.54 1012.40 1012.70 1012.93 1013.16 1013.64 1014.53 1015.00
1008.62 1008.88 1009.18 1009.55 1009.84 1010.67 1011.11 1011.54 1011.71 1012.23 1012.62 1012.78 1013.08 1013.70 1013.90 1012.82 1011.54 1011.14 1011.20 1011.97 1012.20 1012.63 1012.27 1011.99 1011.93 1011.63 1011.34 1011.26 1011.58 1011.14 1011.32 1011.81 1012.21 1012.67 1012.67 1012.83 1012.71 1012.61 1012.74 1013.00 1013.58 1013.94 1013.97 1014.26 1014.62
1008.22 1008.78 1009.05 1009.59 1010.21 1010.55 1010.94 1011.50 1011.74 1012.12 1012.61 1012.75 1013.10 1013.58 1013.30 1012.02 1011.40 1011.11 1011.45 1011.96 1011.74 1012.23 1011.84 1011.74 1011.61 1011.67 1011.32 1011.28 1011.24 1011.16 1011.46 1012.00 1012.43 1013.00 1013.15 1013.27 1013.16 1013.19 1012.77 1013.24 1013.52 1014.00 1014.07 1014.09 1014.32
1007.67 1008.38 1008.71 1009.66 1009.95 1010.37 1010.98 1011.32 1011.69 1012.19 1012.59 1012.59 1012.97 1013.32 1012.33 1011.25 1010.91 1011.24 1011.79 1011.65 1011.70 1011.79 1011.57 1011.55 1011.75 1011.96 1011.63 1011.71 1011.89 1011.49 1011.73 1012.17 1012.85 1013.16 1013.37 1013.64 1013.32 1012.84 1012.93 1013.37 1013.47 1013.72 1013.72 1014.05 1014.04
1007.39 1007.98 1008.63 1009.44 1009.66 1010.11 1011.03 1011.49 1011.81 1012.34 1012.46 1012.79 1013.06 1013.01 1011.52 1011.35 1011.02 1011.62 1011.60 1011.76 1012.00 1012.09 1011.73 1011.77 1012.05 1012.26 1012.23 1012.21 1011.82 1011.52 1011.37 1011.81 1013.08 1013.50 1013.86 1013.73 1012.44 1012.02 1013.00 1013.25 1013.11 1013.19 1013.24 1013.90 1014.24
1006.95 1007.81 1008.37 1009.05 1009.95 1010.59 1011.30 1011.58 1011.90 1012.58 1012.52 1012.78 1012.93 1012.50 1011.43 1011.52 1011.45 1011.24 1011.51 1011.36 1011.86 1012.18 1012.09 1012.07 1011.94 1012.16 1012.61 1011.83 1011.44 1011.24 1010.85 1011.50 1013.11 1013.72 1013.79 1013.58 1012.61 1013.01 1013.29 1013.18 1012.84 1012.84 1013.11 1013.54 1013.88
1006.59 1007.50 1008.07 1008.98 1009.93 1010.61 1011.13 1011.63 1012.17 1012.22 1012.24 1012.49 1012.15 1012.40 1011.40 1010.85 1010.95 1011.01 1011.57 1011.56 1011.61 1012.11 1012.05 1011.91 1011.76 1011.86 1011.73 1010.98 1009.78 1010.35 1010.78 1011.71 1012.48 1013.72 1013.98 1013.56 1012.98 1012.78 1013.27 1013.25 1012.98 1012.86 1013.14 1013.51 1013.78
1006.26 1007.12 1007.95 1008.51 1009.63 1010.25 1011.18 1011.59 1011.56 1011.49 1011.11 1010.44 1010.35 1010.29 1010.09 1010.94 1010.90 1011.05 1011.30 1011.53 1011.31 1011.51 1011.29 1011.53 1011.42 1010.87 1010.84 1010.52 1010.05 1010.02 1010.89 1011.65 1012.52 1013.81 1013.88 1013.34 1012.75 1012.36 1012.50 1013.12 1013.14 1013.11 1013.20 1013.60 1013.95
1006.03 1006.84 1007.82 1008.86 1009.81 1010.19 1010.13 1008.70 1008.34 1007.99 1010.34 1010.74 1010.43 1010.58 1010.80 1010.74 1010.89 1011.22 1011.05 1011.00 1010.93 1010.92 1011.09 1011.98 1010.84 1010.91 1011.06 1011.01 1010.89 1010.67 1011.33 1011.84 1013.54 1014.07 1014.20 1013.53 1012.71 1012.35 1012.57 1013.12 1013.44 1013.76 1014.00 1014.26 1014.53
1005.76 1006.58 1007.74 1008.82 1009.60 1010.33 1009.36 1008.40 1008.48 1008.38 1008.90 1010.19 1010.42 1010.39 1010.82 1011.07 1010.61 1010.76 1010.79 1010.53 1010.59 1010.74 1011.04 1011.15 1011.07 1011.42 1011.56 1011.93 1011.54 1011.56 1011.42 1011.78 1012.61 1014.00 1014.31 1013.79 1012.38 1011.83 1012.94 1013.59 1014.19 1014.43 1014.81 1015.05 1015.24
1005.64 1006.56 1007.69 1008.92 1010.44 1009.39 1008.86 1008.57 1009.03 1009.05 1008.48 1009.53 1010.24 1010.10 1010.57 1010.63 1011.06 1011.02 1010.78 1010.63 1010.54 1010.81 1011.42 1011.67 1012.19 1011.91 1012.15 1011.87 1011.84 1012.25 1012.46 1012.43 1013.06 1013.60 1013.61 1013.67 1011.98 1011.35 1012.01 1013.24 1014.04 1014.51 1014.81 1015.16 1015.75
1005.55 1006.44 1007.57 1008.37 1007.41 1008.07 1008.13 1008.79 1009.13 1008.84 1008.37 1008.19 1009.46 1010.24 1010.25 1010.49 1010.56 1011.40 1011.52 1010.60 1010.27 1010.48 1011.25 1011.85 1012.21 1012.38 1012.37 1011.92 1012.45 1012.95 1013.20 1013.15 1013.40 1013.69 1014.14 1013.75 1013.48 1011.32 1012.29 1012.96 1013.84 1014.51 1015.15 1015.72 1016.11
1006.44 1007.12 1007.49 1008.17 1007.61 1008.18 1008.31 1009.08 1009.10 1008.99 1007.80 1008.39 1009.00 1009.59 1010.06 1010.47 1010.68 1011.24 1011.05 1010.85 1011.14 1011.23 1011.52 1012.47 1012.98 1012.60 1012.58 1013.03 1013.04 1013.67 1013.84 1014.21 1014.27 1014.44 1014.32 1013.27 1013.56 1011.48 1011.87 1012.25 1013.55 1014.84 1015.23 1016.34 1016.44
1007.27 1007.39 1007.78 1007.91 1007.99 1008.34 1008.70 1008.78 1009.01 1007.82 1006.81 1008.11 1008.36 1008.52 1008.40 1009.37 1010.27 1010.26 1010.48 1010.46 1010.11 1010.72 1011.19 1012.31 1013.03 1013.45 1013.37 1013.68 1014.06 1013.39 1013.43 1014.10 1014.71 1015.10 1014.43 1014.44 1014.31 1011.98 1012.37 1012.88 1013.58 1014.64 1015.49 1016.43 1016.77
1007.78 1007.47 1008.02 1008.48 1008.75 1008.63 1008.55 1008.67 1007.80 1005.71 1006.06 1006.79 1007.26 1008.06 1008.29 1008.98 1009.82 1009.95 1010.21 1010.25 1009.79 1009.47 1009.95 1011.34 1013.06 1013.17 1013.14 1012.68 1012.82 1013.07 1012.87 1012.87 1013.94 1014.94 1014.79 1015.63 1013.88 1012.41 1012.88 1013.71 1013.96 1014.95 1015.92 1016.52 1016.99
1008.09 1008.02 1008.58 1008.98 1008.81 1008.75 1008.72 1008.01 1004.93 1004.37 1005.23 1006.47 1007.42 1007.87 1008.22 1008.73 1009.06 1009.61 1009.35 1008.81 1008.71 1009.12 1008.86 1010.24 1011.94 1013.10 1013.31 1013.21 1012.84 1013.50 1013.19 1013.30 1014.35 1015.82 1015.07 1014.00 1013.01 1013.26 1013.67 1014.10 1014.38 1015.26 1016.29 1016.77 1017.22
1008.23 1008.74 1009.36 1009.10 1008.88 1009.07 1008.61 1005.91 1005.28 1004.84 1004.98 1005.68 1005.80 1006.43 1006.89 1007.80 1008.63 1008.58 1008.83 1008.19 1008.52 1008.87 1009.27 1009.74 1011.72 1013.73 1014.11 1013.74 1013.60 1012.90 1012.72 1013.58 1013.58 1014.33 1013.97 1013.09 1012.48 1011.73 1013.05 1013.50 1014.31 1015.07 1015.93 1016.74 1017.50
1009.00 1009.35 1009.41 1009.36 1008.99 1008.87 1006.89 1005.20 1005.13 1005.42 1005.23 1005.26 1005.32 1005.90 1006.11 1006.93 1007.66 1008.17 1007.81 1008.05 1008.26 1009.08 1009.90 1010.07 1010.93 1014.20 1014.19 1013.42 1012.65 1013.42 1012.75 1012.59 1012.39 1012.92 1012.73 1012.39 1011.07 1010.30 1010.79 1011.97 1013.08 1014.32 1015.38 1016.48 1017.36
1009.22 1009.78 1009.89 1009.18 1009.22 1008.98 1007.75 1006.04 1005.36 1005.78 1006.11 1005.91 1005.86 1005.91 1005.97 1006.55 1007.29 1007.77 1007.44 1007.66 1007.91 1008.69 1009.72 1010.72 1011.56 1013.10 1013.11 1013.55 1013.39 1012.55 1011.94 1012.08 1012.02 1012.22 1012.51 1012.25 1010.71 1010.77 1010.48 1011.53 1012.90 1013.97 1015.15 1016.55 1017.52
1009.15 1009.59 1010.21 1009.82 1009.92 1009.45 1008.80 1007.95 1006.77 1006.17 1006.22 1006.33 1006.16 1006.14 1006.45 1006.66 1007.45 1007.47 1008.03 1009.03 1008.94 1009.23 1009.32 1010.37 1011.59 1012.93 1013.43 1013.62 1013.49 1012.53 1011.81 1011.26 1011.41 1012.14 1011.95 1012.11 1010.74 1011.15 1010.89 1011.42 1012.68 1013.73 1015.19 1016.45 1017.55
1009.17 1009.31 1009.92 1010.14 1010.39 1009.91 1009.22 1008.53 1007.68 1007.01 1006.71 1006.72 1006.60 1006.87 1006.90 1006.91 1006.89 1007.64 1008.64 1009.78 1009.98 1009.95 1010.03 1010.31 1010.78 1010.87 1010.95 1010.19 1010.79 1011.86 1011.29 1011.46 1011.26 1011.46 1010.73 1010.52 1009.89 1010.90 1011.03 1011.55 1012.63 1013.84 1015.07 1016.32 1017.43
1009.19 1009.41 1010.00 1009.78 1009.97 1010.20 1009.96 1009.41 1008.45 1008.03 1007.58 1007.21 1007.19 1006.90 1006.75 1006.98 1007.24 1007.69 1008.62 1010.15 1010.76 1010.52 1010.55 1010.71 1010.59 1011.04 1010.48 1010.41 1010.26 1010.19 1010.81 1011.21 1011.07 1009.78 1009.95 1008.67 1009.06 1009.22 1010.48 1011.24 1011.81 1013.01 1014.88 1015.98 1017.07
1009.44 1009.86 1010.11 1010.16 1010.14 1010.28 1010.25 1009.65 1009.20 1008.90 1008.78 1007.99 1007.33 1007.24 1007.49 1006.99 1006.73 1007.63 1008.64 1009.39 1009.68 1011.27 1011.06 1011.16 1011.11 1011.17 1011.36 1011.21 1011.33 1010.91 1010.66 1010.42 1010.09 1009.37 1009.35 1008.32 1008.08 1008.28 1009.49 1011.08 1012.22 1013.10 1014.34 1015.42 1016.50
1010.08 1010.15 1009.92 1010.17 1009.97 1009.97 1009.78 1009.75 1009.65 1009.56 1010.00 1009.49 1008.64 1008.53 1008.68 1008.10 1008.07 1008.41 1008.62 1009.39 1009.68 1010.28 1011.00 1011.44 1011.67 1012.05 1012.34 1012.47 1012.30 1011.65 1009.06 1009.53 1009.29 1008.97 1008.16 1007.77 1006.62 1008.74 1009.71 1010.45 1011.28 1012.54 1013.46 1014.73 1016.05
Wind_Speed
17 16 14 14 13 11 13 13 12 11 12 11 11 10 10 9 7 9 11 5 5 9 4 4 5 4 5 4 2 2 8 9 9 7 7 10 8 3 2 4 3 4 5 6 16
17 16 15 14 12 11 12 12 12 12 11 10 9 9 10 13 16 17 7 8 6 7 6 10 9 7 6 6 4 7 11 11 3 5 9 13 9 9 6 7 6 7 6 10 15
18 17 16 14 12 12 12 12 12 11 11 12 11 12 14 14 12 7 11 9 8 8 8 10 6 10 7 5 8 5 11 4 5 5 3 12 8 7 6 8 7 12 12 13 15
18 17 16 16 14 13 13 12 12 12 12 11 11 10 9 8 9 2 2 10 12 11 9 7 8 10 10 10 7 9 2 2 5 4 4 11 8 6 7 7 6 4 15 15 15
18 17 15 15 13 14 13 12 12 11 10 10 10 9 6 8 6 4 7 10 12 12 14 12 10 12 11 14 8 10 8 5 7 6 4 5 7 1 7 6 5 4 6 12 13
19 17 16 15 15 14 14 13 12 10 10 10 8 8 8 13 3 7 9 10 11 15 14 12 8 11 9 8 16 5 10 10 6 8 5 5 4 2 3 3 5 5 7 10 11
18 16 16 16 14 14 13 12 12 10 10 10 10 7 8 7 3 6 8 7 7 13 13 12 3 7 4 8 3 11 9 9 6 5 5 2 6 9 10 4 4 7 9 8 9
20 17 17 15 14 13 12 12 11 10 9 9 8 7 6 2 5 6 7 6 6 5 5 6 5 4 3 6 7 8 7 9 6 6 3 4 9 7 4 5 8 8 9 9 8
20 18 18 17 16 14 12 11 10 9 7 8 8 7 5 5 5 8 9 8 8 5 4 6 5 4 5 10 8 8 11 12 6 4 4 8 7 8 2 2 4 6 6 6 7
20 19 18 19 16 15 13 12 10 11 7 5 3 7 7 5 7 8 3 12 6 11 7 7 6 8 10 14 16 14 15 7 12 7 5 8 12 5 4 3 4 6 6 5 6
21 21 20 19 17 17 14 10 10 6 9 3 5 3 7 5 4 8 6 8 8 13 10 10 11 16 18 15 12 15 14 10 8 3 6 12 12 12 8 6 7 8 7 5 4
23 23 21 20 19 19 16 10 18 7 10 5 2 2 2 2 6 10 8 10 10 16 12 8 16 14 10 7 6 7 13 11 5 4 4 4 12 11 10 7 4 4 6 5 3
22 23 22 20 16 12 15 14 1 12 7 6 3 4 4 5 4 13 12 7 14 15 16 13 9 11 7 8 10 9 14 11 3 6 1 2 9 11 5 5 4 3 4 3 2
22 23 23 20 12 15 15 13 4 4 7 10 8 5 5 5 4 2 7 5 7 16 12 9 5 11 12 15 13 9 1 10 11 9 5 3 5 7 9 8 4 4 6 5 5
18 23 24 22 9 13 8 8 4 3 8 16 12 4 4 6 12 5 1 2 14 12 9 7 9 14 13 14 10 5 7 7 6 5 3 7 6 4 7 9 8 7 6 6 5
16 11 21 7 4 9 5 8 4 6 9 9 9 12 11 6 4 6 5 4 4 7 6 5 3 6 6 6 5 15 12 10 5 2 7 11 9 8 8 12 11 8 9 8 9
13 11 5 3 6 5 7 5 7 9 11 11 11 16 22 10 8 11 17 13 11 11 13 5 5 2 6 10 8 10 15 5 5 6 7 4 5 12 5 4 11 13 12 11 10
10 5 5 3 3 5 5 7 8 16 16 5 10 14 19 14 5 10 15 17 14 11 14 13 9 13 10 7 10 16 16 6 7 6 5 2 9 5 8 3 11 13 13 11 10
7 2 4 4 3 1 9 13 14 12 17 12 16 18 15 12 7 11 19 20 18 15 10 14 8 3 5 1 12 8 10 3 7 2 2 7 7 5 7 9 13 14 13 12 11
1 2 2 6 4 2 13 19 17 1 17 18 12 16 22 22 13 18 19 16 14 16 4 6 5 2 2 2 0 6 11 5 3 6 5 7 6 7 14 17 16 17 16 14 12
3 2 3 6 1 6 18 17 17 6 9 15 10 14 19 21 18 15 17 7 21 13 5 7 2 3 5 10 14 6 6 6 4 3 4 4 7 2 20 21 21 18 17 16 14
1 4 3 4 3 2 15 24 15 10 5 6 3 4 17 18 16 15 17 7 15 15 15 2 5 6 9 4 3 6 11 12 6 6 4 3 5 4 4 18 19 18 16 14 13
2 2 2 2 2 2 3 6 17 12 12 7 8 2 3 14 9 13 10 3 3 12 14 10 4 4 2 2 2 7 12 16 16 3 7 6 7 3 5 15 16 18 16 14 14
2 2 2 3 4 2 3 4 12 14 13 6 6 4 6 9 8 15 10 3 4 7 4 12 4 14 14 17 8 9 15 15 17 8 12 11 11 5 12 17 17 17 17 17 16
2 1 3 2 4 3 1 1 5 8 8 10 6 10 12 6 10 6 12 7 3 4 4 8 9 12 20 9 6 12 15 17 20 25 17 23 17 11 18 20 23 20 18 17 16
3 3 2 2 1 7 5 4 2 3 2 11 14 14 13 11 12 10 11 9 7 6 9 4 4 9 2 5 3 2 9 19 22 25 22 23 16 6 15 16 17 18 18 18 17
1 1 2 3 2 5 5 3 2 4 1 2 2 8 10 5 4 5 4 5 6 9 10 8 6 4 4 6 4 5 22 17 20 25 21 25 25 8 14 19 21 20 20 18 17
Wind_Direction
199 191 214 209 190 191 178 180 183 190 186 182 186 190 200 225 225 212 224 189 175 148 142 197 183 169 209 163 210 294 225 211 204 213 136 152 172 173 75 144 183 136 33 74 136
197 191 194 203 187 185 175 179 186 185 185 182 180 191 200 202 222 228 206 156 144 157 187 208 174 172 188 182 194 226 218 208 207 190 157 168 201 160 181 164 177 163 116 134 150
191 188 190 189 186 184 182 179 178 179 179 178 181 188 202 206 238 234 179 160 151 183 229 224 204 191 199 189 195 203 202 135 145 93 167 165 187 173 203 188 181 187 164 164 168
193 183 188 187 186 190 181 178 172 174 180 178 176 186 205 216 216 107 268 153 158 190 200 182 189 198 192 199 183 190 83 133 129 109 148 165 141 192 220 73 37 60 154 168 180
191 184 183 183 182 184 177 176 172 170 179 171 173 175 186 213 246 112 119 151 159 187 201 185 189 205 199 193 200 240 142 109 107 123 147 124 172 84 216 147 109 97 168 179 187
184 184 172 179 179 172 170 178 175 169 177 168 173 173 234 223 86 136 145 159 170 190 195 190 198 210 230 195 207 152 139 124 127 132 120 203 166 192 152 128 195 191 190 194 198
188 179 166 178 173 163 169 172 172 173 175 169 167 200 233 223 113 146 165 173 173 205 188 191 199 201 172 166 149 152 127 132 150 150 119 272 213 224 127 150 164 196 199 208 201
179 177 169 172 161 157 168 164 161 174 173 164 165 215 243 68 119 160 177 134 169 197 244 155 161 155 288 124 137 171 178 171 147 178 114 196 250 166 112 221 224 203 192 192 202
174 174 169 161 160 153 165 155 151 168 163 156 163 236 219 127 176 165 188 157 142 148 115 131 150 171 152 187 171 202 193 206 149 204 145 213 248 93 161 204 198 201 204 199 200
173 169 164 159 157 153 151 155 153 142 147 177 278 215 170 195 149 149 159 160 147 146 131 167 176 189 210 203 201 187 215 190 208 169 212 199 238 156 177 225 229 177 181 197 188
171 166 165 151 156 156 147 148 157 165 191 175 197 249 142 106 144 174 153 153 150 178 175 189 189 205 204 216 230 201 208 196 185 109 209 230 248 249 217 225 239 225 219 223 211
167 162 160 155 166 168 185 186 181 134 172 236 132 76 121 216 127 166 177 172 176 181 174 173 208 200 215 174 208 198 198 185 108 125 226 190 255 242 234 228 249 267 249 240 231
168 159 153 155 158 173 200 208 47 179 167 167 180 163 167 217 133 169 185 173 184 174 193 200 189 129 138 175 164 195 207 170 216 142 168 271 257 230 169 189 183 199 231 213 213
164 152 147 147 163 177 197 201 233 240 186 173 191 185 160 200 126 49 200 173 183 194 190 238 136 168 184 189 194 190 81 141 134 175 217 205 265 190 177 183 189 174 189 163 145
156 152 154 172 151 175 172 187 186 232 213 160 154 105 160 201 130 174 292 149 166 155 186 168 165 175 189 184 198 153 156 134 141 191 265 182 253 218 165 196 180 165 157 136 121
61 99 169 190 134 164 147 147 184 204 227 159 141 170 159 176 132 120 149 59 51 138 202 99 344 190 181 99 201 140 121 96 106 181 245 221 226 220 178 211 165 164 145 149 131
21 70 128 175 136 135 162 147 162 213 135 163 184 181 181 162 138 177 182 174 166 169 184 133 159 119 163 102 141 173 163 149 185 201 236 34 216 251 133 163 179 167 155 146 139
350 68 49 53 62 163 176 173 197 204 195 157 168 177 187 147 168 183 173 193 217 221 168 182 196 182 177 214 177 193 192 168 180 196 168 110 226 225 112 183 153 151 149 144 134
337 26 81 10 13 35 172 192 203 193 171 150 147 167 185 176 149 167 195 197 198 203 171 194 180 69 177 145 152 172 207 66 106 69 185 191 236 183 161 175 160 156 159 158 144
44 91 90 334 10 182 190 205 199 99 140 161 169 186 188 184 169 188 186 203 191 195 251 209 121 238 107 156 277 218 145 164 222 166 219 194 245 232 189 183 177 174 175 163 150
96 48 343 323 248 188 202 197 198 139 166 185 178 182 196 184 195 197 189 172 195 179 184 168 120 130 164 210 177 157 191 217 233 221 218 202 239 215 189 184 182 177 176 167 164
150 147 349 346 80 292 212 205 218 157 177 201 192 159 188 181 195 200 200 217 198 158 190 122 98 155 189 65 26 269 223 196 201 206 264 33 261 342 197 181 179 174 166 168 165
74 77 74 77 187 236 67 224 244 187 192 189 200 190 167 175 186 205 198 64 148 169 180 174 154 115 101 229 155 216 210 221 227 61 192 195 245 341 214 168 176 171 167 163 165
137 135 74 184 140 107 137 210 207 230 212 192 154 134 145 184 213 191 179 153 177 197 64 161 148 199 219 224 146 202 210 209 214 211 216 224 228 161 174 172 174 176 175 172 176
20 75 11 166 194 143 310 165 179 170 232 206 186 206 191 156 182 185 165 143 166 171 154 183 202 204 233 240 208 205 203 204 213 221 214 233 229 211 190 185 189 181 173 172 175
142 161 186 97 108 165 197 204 169 105 232 205 229 197 220 217 191 174 160 180 170 172 181 191 195 218 222 238 242 244 220 203 213 226 233 248 247 245 178 194 180 177 176 179 179
110 98 263 169 185 190 187 173 127 116 118 22 234 141 191 187 29 41 66 102 121 155 176 167 146 125 198 133 124 272 223 215 218 225 221 235 236 148 181 191 186 183 188 182 177